CZ-6A DEB, 60769

Orbit data source: Space-Track

CZ-6A DEB, 60769 is space debris in LEO originally from a launch on Tue, 06 Aug 2024 UTC launched from the Taiyaun Space Center, China (TSC). Debris objects in space refer to the collection of defunct objects orbiting the Earth. Examples of debris include non-operational satellites, rocket bodies, and fragments generated from explosions, collisions, or faulty payload assembly.

Loading next visibility...
Identifier
60769, 2024-140EU
Orbit
LEO
Country
Flag of CNCN / PRC
Related business
Manufacturer
SAST
Mission
Spacecraft
Bus & Motor
Unknown
Mass
Unknown
Launch date (UTC)
2024-08-06 (2 years ago)
Launch vehicle
Unknown
Launch site
Taiyaun Space Center, China (TSC)
Object type
Payload
Rocket body
Debris
Shape & HBR
Unknown shape, 0.2 m
Radar Cross Section
Medium (>0.1 m² and <1 m²)

Expand to show TLE details & history
Last TLE update: 13 hours ago

TLE from 13 hours ago
0 CZ-6A DEB
1 60769U 24140EU  26171.31870380  .00000752  00000-0  23655-3 0  9994
2 60769  89.0590 276.8401 0047064 229.6140 130.0949 14.38875607 95407
Epoch: 2026-06-20T07:38Z
TLE epoch observation values (Epoch: 2026-06-20T07:38:56.008Z)
Latitude
Longitude
-106.42831°
Altitude
787.037 km
Speed
7.449 km/s
True Right ascension
18h 27m 21s
True Declination
0° 00' 00"
Sunlit
Object was in full shadow at epoch
Visualization orbit readout
Latitude
Unknown
Longitude
Unknown
Altitude
Unknown
Speed
Unknown
Apparent Right ascension
Unknown
Apparent Declination
Unknown
Sunlit
N/A
Visualization observer readout
Local Sidereal Time
07:12:25
Azimuth
Unknown
Elevation
Unknown
Doppler factor
Unknown
Orbital elements
Apogee altitude
792.731 km
Perigee altitude
725.549 km
Semi-major axis
7,137.277 km
Eccentricity
0.00471
Inclination
89.059°
RAAN
276.8401°
Arg. of periapsis
229.614°
True anomaly
130.5059°
Mean anomaly
130.0949°
Eccentric anomaly
130.30056°
Mean motion
3.59952 °/min
Orbital period
100.01 mins
BSTAR
0.00023655
Loading maneuver chart data...
Computing Atmospheric mass density...
Loading historical data...
Loading historical data...
Loading historical data...
Loading historical data...
Loading historical data...
Loading historical data...
Loading historical data...

Documentation

Showing up to 5 results
|